sat.trackr.live / text

‹ back to catalog

STARLINK-37150

NORAD 68315 · 2026-057X

PAYLOAD ACTIVE UNKNOWN

§ Identity

Operator
Country
US
Launch date
2026-03-20
Launch site
AFWTR
Launch vehicle
Mass (kg)
RCS (m²)

Purposes: comms

External: N2YO · Heavens-Above · Gunter

§ Orbital elements

Epoch: 2026-05-24T22:02:43.543392Z

Period
91.42 min
Inclination
97.2839°
Eccentricity
0.0001647
Mean motion
15.75184246 rev/d
Perigee alt
343.0 km
Apogee alt
345.2 km
Semi-major
6,722.2 km
B*
1.2892e-3
RAAN
271.1292°
Arg perigee
66.4295°
Mean anomaly
293.7143°
Rev number
1,028

§ Raw data

STARLINK-371501 68315U 26057X   26144.91855953  .00196613  00000+0  12892-2 0  99942 68315  97.2839 271.1292 0001647  66.4295 293.7143 15.75184246 10280

JSON: /api/v1/satellites/68315 · /tle

For live sub-satellite position, see the globe view (requires WebGL).

§ Visibility from observer

Set your observer location to see the next 7 days of passes ≥ 10°. The values pass through the URL so the page stays shareable.

No JS? Fill the form by hand. The geolocation button needs JavaScript.